Date String (YYYY-MM-DD hh:mm:ss) UTC,Instrument flags,Ambient pressure (hPa),Sample flow (lpm),Bypass flow (lpm),Sample temperature (°C),Ambient temperature (°C),ASC tube jacket temperature (°C),LED temperature (°C),Box temperature (°C),Sample RH (%),Span deviation,Mass concentration (μg/m³),Mass concentration (μg/m³),Mass concentration (μg/m³)
DateTimeUTC,F1_M11,P_M11,Q1_M11,Q2_M11,T1_M11,T2_M11,T3_M11,T4_M11,T5_M11,U1_M11,ZSPAN_M11,X0_M11,X2_M11,X1_M11
2021-10-21 09:00:00,,0831.2,4.99,0.00,25.6,24.8,00.0,34.8,27.4,14.6,0000.0,0010.76,0004.15,0003.46
2021-10-21 09:01:00,,0831.2,5.00,0.00,25.6,24.8,00.0,34.8,27.4,14.7,0000.0,0010.57,0004.19,0003.47
2021-10-21 09:02:00,,0831.2,5.02,0.00,25.6,24.8,00.0,34.8,27.4,14.7,0000.0,0010.82,0004.25,0003.48
2021-10-21 09:03:00,,0831.2,4.98,0.00,25.6,24.8,00.0,34.7,27.4,14.7,0000.0,0011.08,0004.29,0003.50
2021-10-21 09:04:00,,0831.2,5.00,0.00,25.6,24.8,00.0,34.7,27.4,14.6,0000.0,0011.30,0004.28,0003.50
2021-10-21 09:05:00,,0831.2,5.00,0.00,25.6,24.8,00.0,34.7,27.4,14.6,0000.0,0011.27,0004.27,0003.50
2021-10-21 09:06:00,,0831.2,5.01,0.00,25.6,24.8,00.0,34.7,27.4,14.6,0000.7,0011.15,0004.28,0003.50
2021-10-21 09:07:00,,0831.3,4.99,0.00,25.6,24.9,00.0,34.7,27.4,14.6,0002.8,0010.77,0004.27,0003.50
2021-10-21 09:08:00,,0831.2,4.99,0.00,25.7,24.9,00.0,34.7,27.5,14.6,0002.7,0010.10,0004.30,0003.51
2021-10-21 09:09:00,,0831.3,5.00,0.00,25.7,24.9,00.0,34.7,27.5,14.6,0002.0,0011.03,0004.29,0003.52
2021-10-21 09:10:00,,0831.4,4.98,0.00,25.6,24.8,00.0,34.7,27.4,14.6,0001.3,0011.15,0004.25,0003.53
2021-10-21 09:11:00,,0831.4,5.02,0.00,25.6,24.8,00.0,34.7,27.4,14.8,0001.6,0011.71,0004.27,0003.52
2021-10-21 09:12:00,,0831.3,4.99,0.00,25.6,24.8,00.0,34.7,27.4,14.8,0001.5,0012.44,0004.29,0003.52
2021-10-21 09:13:00,,0831.4,5.01,0.00,25.6,24.8,00.0,34.7,27.4,14.7,0000.9,0012.09,0004.25,0003.52
2021-10-21 09:14:00,,0831.3,4.99,0.00,25.6,24.8,00.0,34.7,27.4,14.7,0000.6,0011.65,0004.23,0003.52
2021-10-21 09:15:00,,0831.3,5.00,0.00,25.6,24.8,00.0,34.7,27.4,14.6,0000.2,0011.83,0004.26,0003.53
2021-10-21 09:16:00,,0831.2,5.01,0.00,25.6,24.8,00.0,34.7,27.4,14.6,0000.0,0011.90,0004.30,0003.54
2021-10-21 09:17:00,,0831.3,4.99,0.00,25.6,24.9,00.0,34.7,27.5,14.5,0000.0,0012.10,0004.30,0003.54
2021-10-21 09:18:00,,0831.3,5.01,0.00,25.7,24.9,00.0,34.7,27.5,14.5,0000.0,0011.96,0004.33,0003.54
2021-10-21 09:19:00,,0831.3,4.99,0.00,25.7,24.9,00.0,34.7,27.5,14.5,0000.0,0011.92,0004.33,0003.54
2021-10-21 09:20:00,,0831.2,5.01,0.00,25.7,24.9,00.0,34.7,27.5,14.5,0000.0,0010.84,0004.32,0003.53
2021-10-21 09:21:00,,0831.2,5.00,0.00,25.7,24.9,00.0,34.7,27.5,14.6,0000.0,0010.67,0004.36,0003.54
2021-10-21 09:22:00,,0831.2,5.01,0.00,25.7,24.9,00.0,34.7,27.5,14.6,0000.0,0011.24,0004.36,0003.55
2021-10-21 09:23:00,,0831.2,4.98,0.00,25.7,24.9,00.0,34.7,27.6,14.5,0000.0,0011.32,0004.32,0003.55
2021-10-21 09:24:00,,0831.2,5.02,0.00,25.7,24.9,00.0,34.7,27.5,14.5,0001.3,0012.48,0004.36,0003.55
2021-10-21 09:25:00,,0831.2,4.98,0.00,25.7,24.9,00.0,34.7,27.5,14.5,0001.6,0012.95,0004.40,0003.55
2021-10-21 09:26:00,,0831.3,5.00,0.00,25.7,24.9,00.0,34.7,27.5,14.5,0000.8,0013.07,0004.38,0003.55
2021-10-21 09:27:00,,0831.3,5.01,0.00,25.7,24.9,00.0,34.7,27.5,14.5,0001.6,0013.26,0004.38,0003.55
2021-10-21 09:28:00,,0831.3,5.00,0.00,25.7,24.9,00.0,34.8,27.6,14.5,0001.5,0013.96,0004.41,0003.56
2021-10-21 09:29:00,,0831.2,4.99,0.00,25.7,24.9,00.0,34.8,27.5,14.5,0001.0,0014.73,0004.45,0003.56
2021-10-21 09:30:00,,0831.3,5.00,0.00,25.7,24.9,00.0,34.8,27.5,14.5,0000.9,0014.71,0004.42,0003.57
2021-10-21 09:31:00,,0831.3,5.00,0.00,25.7,24.9,00.0,34.8,27.6,14.6,0001.4,0014.53,0004.41,0003.57
2021-10-21 09:32:00,,0831.2,5.01,0.00,25.7,24.9,00.0,34.8,27.5,14.6,0001.4,0014.52,0004.42,0003.57
2021-10-21 09:33:00,,0831.2,5.01,0.00,25.7,24.8,00.0,34.8,27.4,14.6,0001.7,0013.50,0004.47,0003.58
2021-10-21 09:34:00,,0831.2,4.99,0.00,25.6,24.7,00.0,34.7,27.4,14.6,0002.2,0012.87,0004.50,0003.60
2021-10-21 09:35:00,,0831.3,5.01,0.00,25.6,24.7,00.0,34.7,27.3,14.7,0000.7,0011.82,0004.50,0003.59
2021-10-21 09:36:00,,0831.4,5.00,0.00,25.5,24.6,00.0,34.7,27.3,14.8,0000.9,0012.48,0004.48,0003.59
2021-10-21 09:37:00,,0831.3,5.00,0.00,25.5,24.6,00.0,34.7,27.3,14.8,0000.0,0012.70,0004.51,0003.60
2021-10-21 09:38:00,,0831.3,5.00,0.00,25.5,24.6,00.0,34.7,27.3,14.8,0000.0,0012.53,0004.54,0003.60
2021-10-21 09:39:00,,0831.4,5.01,0.00,25.5,24.6,00.0,34.7,27.3,14.8,0000.0,0011.79,0004.49,0003.59
2021-10-21 09:40:00,,0831.4,5.00,0.00,25.5,24.6,00.0,34.6,27.3,14.7,0000.0,0011.71,0004.46,0003.58
2021-10-21 09:41:00,,0831.4,4.98,0.00,25.5,24.6,00.0,34.6,27.3,14.7,0000.0,0011.70,0004.47,0003.57
2021-10-21 09:42:00,,0831.5,5.01,0.00,25.5,24.7,00.0,34.6,27.3,14.6,0000.0,0011.91,0004.45,0003.57
2021-10-21 09:43:00,,0831.4,5.00,0.00,25.5,24.7,00.0,34.6,27.3,14.7,0000.0,0011.97,0004.45,0003.58
2021-10-21 09:44:00,,0831.4,4.98,0.00,25.5,24.7,00.0,34.6,27.3,14.7,0000.0,0012.87,0004.42,0003.56
2021-10-21 09:45:00,,0831.3,5.01,0.00,25.5,24.7,00.0,34.6,27.3,14.7,0000.0,0014.02,0004.37,0003.55
2021-10-21 09:46:00,,0831.2,5.00,0.00,25.5,24.7,00.0,34.6,27.3,14.7,0000.0,0014.18,0004.33,0003.54
2021-10-21 09:47:00,,0831.2,5.00,0.00,25.5,24.7,00.0,34.6,27.3,14.6,0000.0,0013.12,0004.31,0003.53
2021-10-21 09:48:00,,0831.2,4.99,0.00,25.5,24.7,00.0,34.6,27.3,14.6,0002.3,0012.39,0004.28,0003.53
2021-10-21 09:49:00,,0831.1,5.01,0.00,25.5,24.7,00.0,34.6,27.3,14.6,0002.6,0012.25,0004.25,0003.53
2021-10-21 09:50:00,,0831.1,5.01,0.00,25.5,24.7,00.0,34.6,27.4,14.6,0002.7,0013.19,0004.27,0003.52
2021-10-21 09:51:00,,0831.2,5.00,0.00,25.5,24.7,00.0,34.6,27.3,14.6,0003.1,0012.91,0004.29,0003.53
2021-10-21 09:52:00,,0831.2,5.00,0.00,25.5,24.7,00.0,34.6,27.3,14.6,0003.8,0013.01,0004.28,0003.54
2021-10-21 09:53:00,,0831.2,5.00,0.00,25.5,24.7,00.0,34.6,27.3,14.5,0004.0,0012.84,0004.31,0003.55
2021-10-21 09:54:00,,0831.2,4.99,0.00,25.5,24.6,00.0,34.6,27.3,14.6,0003.7,0012.80,0004.33,0003.55
2021-10-21 09:55:00,,0831.2,5.01,0.00,25.5,24.6,00.0,34.6,27.3,14.6,0003.6,0012.02,0004.34,0003.56
2021-10-21 09:56:00,,0831.1,4.99,0.00,25.5,24.6,00.0,34.6,27.3,14.7,0002.5,0010.87,0004.37,0003.56
2021-10-21 09:57:00,,0831.2,5.00,0.00,25.5,24.7,00.0,34.6,27.3,14.7,0002.6,0010.60,0004.39,0003.58
2021-10-21 09:58:00,,0831.2,5.00,0.00,25.5,24.7,00.0,34.6,27.3,14.7,0002.9,0010.53,0004.40,0003.60
2021-10-21 09:59:00,,0831.2,5.01,0.00,25.5,24.7,00.0,34.6,27.3,14.7,0002.7,0010.31,0004.38,0003.60
